Orbital Elements at Epoch 2459200.5 (2020-Dec-17.0) TDB
Reference: JPL 22 (heliocentric ecliptic J2000)
Element | Value | Uncertainty (1-sigma) | Units |
e | .1480571355180597 | 3.1668e-08 | |
a | 2.380361100564051 | 7.3037e-09 | au |
q | 2.027931654515921 | 7.627e-08 | au |
i | 5.691328245743447 | 3.6343e-06 | deg |
node | 41.92157018058865 | 3.5335e-05 | deg |
peri | 85.30191840381408 | 3.7661e-05 | deg |
M | 345.4117558283852 | 1.1961e-05 | deg |
tp | 2459254.857968365868 (2021-Feb-09.35796837) | 4.4572e-05 | TDB |
period | 1341.413564340303 3.67 | 6.1738e-06 1.69e-08 | d yr |
n | .2683736094297251 | 1.2352e-09 | deg/d |
Q | 2.73279054661218 | 8.3851e-09 | au |
|
| | Orbit Determination Parameters
Additional Information
|